Terminal Aerodrome Forecast
Issued by NWS Indianapolis, IN

Home | Current Version | Previous Version | Text Only | Print | Product List | Glossary On
Versions: 1 2 3 4 5 6 7 8 9 10 11 12 13 14 15 16 17 18 19 20 21 22 23 24 25 26 27 28 29 30 31 32 33 34 35 36 37 38 39 40 41 42 43 44 45 46 47 48 49 50
000
FTUS43 KIND 190826 AAB
TAFIND
TAF AMD
KIND 190826Z 1908/2012 36011KT 6SM RA BR BKN015 BKN021 OVC035
     FM190900 36016G24KT 6SM SHRA BR OVC013
     FM191300 36015KT P6SM VCSH OVC010
     FM191400 36014KT P6SM VCSH OVC009
     FM200500 01017KT P6SM OVC016=

USA.gov is the U.S. government's official web portal to all federal, state and local government web resources and services.